Location: Newark
(47.1042°N, 8.6744°E)
Time: 09:04:03
(UTC+00:00)

N. Korean satellite - Pass Details

Date: 20 October 2019
Orbit: 456 x 506 km, 97.2° (Epoch: 12 November)

Event Time Altitude Azimuth Distance (km) Brightness Sun altitude
Rises 04:46:31 0° 22° (NNE) 2,555 10.5 -11.5°
Reaches altitude 10° 04:48:46 10° 34° (NE) 1,679 9.7 -11.1°
Maximum altitude 04:51:57 29° 96° (E) 937 9.0 -10.6°
Drops below altitude 10° 04:55:09 10° 157° (SSE) 1,689 9.7 -10.0°
Sets 04:57:25 0° 169° (S) 2,574 10.5 -9.6°
